DW8067 Weather Reports


time (UTC)temp
C
wind
direction
speed
KPH
gust
KPH
rain 1hr
cm
rain 24hr
cm
rain mn
cm
humidity
%
barometer
mb
20260506044539 17 151 0.0 0.0 0.00 0.00 0.00 71 1013.1
20260506043028 17 151 0.0 0.0 0.00 0.00 0.00 68 1013.2
20260506041525 18 151 0.0 0.0 0.00 0.00 0.00 67 1013.6
20260506040022 18 151 0.0 0.0 0.00 0.00 0.00 68 1013.5
20260506034522 18 151 0.0 0.0 0.00 0.00 0.00 67 1013.3
20260506033031 18 153 0.0 0.0 0.00 0.00 0.00 66 1013.3
20260506031530 19 153 0.0 0.0 0.00 0.00 0.00 66 1013.1
20260506030045 19 153 0.0 0.0 0.00 0.00 0.00 62 1013.3
20260506024526 20 153 0.0 0.0 0.00 0.00 0.00 63 1013.4
20260506023018 20 185 0.0 0.0 0.00 0.00 0.00 61 1013.4
20260506021519 20 150 0.0 1.6 0.00 0.00 0.00 59 1013.2
20260506020017 21 156 0.0 0.0 0.00 0.00 0.00 60 1013.2
20260506014517 21 156 0.0 0.0 0.00 0.00 0.00 63 1013.2
20260506013016 21 174 0.0 1.6 0.00 0.00 0.00 62 1012.9
20260506011524 21 143 0.0 1.6 0.00 0.00 0.00 61 1012.7
20260506010015 21 142 0.0 0.0 0.00 0.00 0.00 62 1012.9
20260506004525 21 222 0.0 0.0 0.00 0.00 0.00 58 1012.7
20260506003017 22 222 0.0 0.0 0.00 0.00 0.00 57 1012.7
20260506001513 23 222 0.0 0.0 0.00 0.00 0.00 54 1012.7
20260506000018 24 225 0.0 9.7 0.00 0.00 0.00 51 1012.9
20260505234512 25 269 6.4 16.1 0.00 0.00 0.00 49 1012.7
20260505233011 25 234 4.8 12.9 0.00 0.00 0.00 46 1012.5
20260505231512 25 240 4.8 16.1 0.00 0.00 0.00 48 1012.4
20260505230008 26 247 6.4 17.7 0.00 0.00 0.00 45 1012.5
20260505224506 26 259 4.8 12.9 0.00 0.00 0.00 50 1012.4
20260505223005 26 274 4.8 17.7 0.00 0.00 0.00 44 1012.3
20260505221504 26 54 0.0 12.9 0.00 0.00 0.00 46 1012.2
20260505220002 26 245 4.8 12.9 0.00 0.00 0.00 48 1012.5
20260505214605 25 266 11.3 20.9 0.00 0.00 0.00 44 1012.5
20260505213104 26 250 9.7 19.3 0.00 0.00 0.00 48 1012.5
20260505211554 26 66 1.6 12.9 0.00 0.00 0.00 47 1012.7
20260505210052 26 268 14.5 22.5 0.00 0.00 0.00 45 1012.8
20260505204550 26 307 1.6 16.1 0.00 0.00 0.00 45 1013.0
20260505203051 26 238 0.0 8.0 0.00 0.00 0.00 45 1013.1
20260505201547 26 158 3.2 19.3 0.00 0.00 0.00 47 1013.4
20260505200043 26 203 3.2 12.9 0.00 0.00 0.00 48 1013.4
20260505194547 25 254 6.4 19.3 0.00 0.00 0.00 48 1013.6
20260505193055 25 229 8.0 20.9 0.00 0.00 0.00 48 1014.0
20260505191540 25 247 6.4 17.7 0.00 0.00 0.00 51 1014.0
20260505190039 25 69 3.2 16.1 0.00 0.00 0.00 49 1014.3
20260505184533 24 258 4.8 22.5 0.00 0.00 0.00 49 1014.7
20260505183031 24 257 4.8 14.5 0.00 0.00 0.00 50 1014.9
20260505181532 24 207 6.4 16.1 0.00 0.00 0.00 51 1015.1
20260505180037 24 252 1.6 16.1 0.00 0.00 0.00 50 1015.4
20260505174527 24 240 1.6 11.3 0.00 0.00 0.00 53 1015.4
20260505173024 23 233 0.0 14.5 0.00 0.00 0.00 54 1015.6
20260505171524 23 254 4.8 14.5 0.00 0.00 0.00 54 1015.6
20260505170024 23 291 3.2 16.1 0.00 0.00 0.00 54 1015.8
20260505164522 23 235 3.2 12.9 0.00 0.00 0.00 55 1015.9
20260505163016 22 255 3.2 9.7 0.00 0.00 0.00 55 1016.1
20260505161516 22 278 3.2 12.9 0.00 0.00 0.00 57 1016.4
20260505153004 20 139 1.6 11.3 0.00 0.00 0.00 65 1016.6
20260505151501 20 236 3.2 8.0 0.00 0.00 0.00 66 1016.8
20260505124532 14 250 1.6 6.4 0.00 0.00 0.00 84 1015.5
20260505123037 13 248 0.0 1.6 0.00 0.00 0.00 85 1015.6
20260505121532 12 217 0.0 1.6 0.00 0.00 0.00 88 1015.6
20260505120039 12 236 0.0 1.6 0.00 0.00 0.00 89 1015.4
20260505114525 11 228 0.0 6.4 0.00 0.00 0.00 91 1015.0
20260505113023 11 140 0.0 0.0 0.00 0.00 0.00 92 1014.8
20260505111530 11 139 0.0 0.0 0.00 0.00 0.00 91 1015.0
20260505101518 11 146 0.0 0.0 0.00 0.00 0.00 88 1014.7
20260505100025 12 146 0.0 1.6 0.00 0.00 0.00 87 1014.6
20260505094518 12 143 0.0 1.6 0.00 0.00 0.00 85 1014.7
20260505093015 12 140 0.0 1.6 0.00 0.00 0.00 85 1014.9
20260505091513 12 140 0.0 0.0 0.00 0.00 0.00 84 1015.0
20260505090015 12 167 0.0 1.6 0.00 0.00 0.00 85 1015.2
20260505084513 12 153 0.0 1.6 0.00 0.00 0.00 83 1015.0
20260505083018 12 153 0.0 0.0 0.00 0.00 0.00 80 1015.0
20260505081510 12 141 0.0 3.2 0.00 0.00 0.00 81 1015.0
20260505080016 11 141 0.0 0.0 0.00 0.00 0.00 82 1014.8
20260505074507 11 141 0.0 0.0 0.00 0.00 0.00 84 1014.8
20260505073015 11 141 0.0 3.2 0.00 0.00 0.00 86 1014.8
20260505071504 11 136 0.0 0.0 0.00 0.00 0.00 84 1014.6
20260505070002 11 134 0.0 0.0 0.00 0.00 0.00 83 1014.5
20260505064501 12 134 0.0 0.0 0.00 0.00 0.00 82 1014.5
20260505063101 12 134 0.0 0.0 0.00 0.00 0.00 82 1014.6
20260505061600 12 134 0.0 0.0 0.00 0.00 0.00 80 1014.7